Location: Igri�s
(42.2144°N, 0.4320°W)
Time: 19:00:50
(UTC+00:00)

USA 238 DEB - Pass Details

Date: 13 August 2020
Orbit: 1006 x 1206 km, 63.4° (Epoch: 17 September)

Event Time Altitude Azimuth Distance (km) Brightness Sun altitude
Rises 20:24:13 0° 211° (SSW) 3,726 6.5 -13.9°
Reaches altitude 10° 20:26:46 10° 211° (SSW) 2,789 5.8 -14.2°
Maximum altitude 20:33:20 85° 123° (ESE) 1,046 3.6 -15.2°
Drops below altitude 10° 20:40:11 10° 37° (NE) 2,910 6.0 -16.3°
Sets 20:42:54 0° 37° (NE) 3,898 6.7 -16.6°
